Flag Weather past 2 weeks in Charleston, South Carolina, U.S.A.

Now
59 °F

Scattered clouds.


Feels Like: 58 °F
Forecast: 53 / 67 °F
Wind: 6 mph from Northeast

Location: Charleston Air Force Base Reporting Station

Current Time: Oct 31, 2014 at 9:39:12 AM

Latest Report: Oct 31, 2014 at 8:56 AM


Visibility: 10 mi

Pressure: 29.90 "Hg

Humidity: 75%

Dew point: 51 °F

Location of CharlestonLocation

Historic Weather in Charleston — Graph

°F

Charleston temperature yesterday

Maximum temperature yesterday: 74 °F (at 1:56 PM)
Minimum temperature yesterday: 57 °F (at 10:56 PM)
Average temperature yesterday: 66 °F

Past Weeks' High & Low Weather Summary

 TemperatureHumidityPressure
High85 °F (Oct 18, 3:56 PM)96% (Oct 27, 11:56 PM)30.18 "Hg (Oct 27, 11:56 PM)
Low46 °F (Oct 23, 5:56 AM)30% (Oct 25, 3:56 PM)29.79 "Hg (Oct 18, 4:56 PM)
Average66 °F67%29.99 "Hg
* Reported Oct 16 7:56 AM — Oct 31 7:56 AM, Charleston, Weather by CustomWeather, © 2014

Note: Actual official high and low records may vary slightly from our data, if they occured in-between our weather recording intervals... More about our weather records

Advertising

Charleston weather history for previous 24 hours

 ConditionsComfort  
Time TempWeatherWind HumidityBarometerVisibility
7:56 AM
Oct 31
55 °FPassing clouds.3 mph83%29.89 "Hg10 mi
6:56 AM55 °FPassing clouds.3 mph83%29.88 "Hg10 mi
5:56 AM57 °FPassing clouds.7 mph81%29.88 "Hg10 mi
4:56 AM56 °FPassing clouds.6 mph84%29.88 "Hg10 mi
3:56 AM58 °FPassing clouds.6 mph84%29.89 "Hg10 mi
2:56 AM60 °FPassing clouds.7 mph83%29.90 "Hg10 mi
1:56 AM60 °FPassing clouds.6 mph86%29.90 "Hg10 mi
12:56 AM60 °FPassing clouds.6 mph86%29.91 "Hg10 mi
11:56 PM
Oct 30
58 °FClear.3 mph87%29.92 "Hg10 mi
10:56 PM57 °FPassing clouds.No wind90%29.94 "Hg10 mi
9:56 PM59 °FClear.No wind87%29.94 "Hg10 mi
8:56 PM60 °FPassing clouds.3 mph83%29.94 "Hg10 mi
7:56 PM62 °FPassing clouds.3 mph78%29.94 "Hg10 mi
6:56 PM62 °FScattered clouds.6 mph78%29.94 "Hg10 mi
5:56 PM64 °FScattered clouds.8 mph73%29.94 "Hg10 mi
4:56 PM68 °FPassing clouds.14 mph65%29.94 "Hg10 mi
3:56 PM70 °FScattered clouds.12 mph61%29.94 "Hg10 mi
2:56 PM74 °FScattered clouds.13 mph53%29.93 "Hg10 mi
1:56 PM74 °FPassing clouds.6 mph53%29.94 "Hg10 mi
12:56 PM72 °FSunny.10 mph53%29.98 "Hg10 mi
11:56 AM70 °FSunny.10 mph55%29.99 "Hg10 mi
10:56 AM68 °FSunny.10 mph59%29.99 "Hg10 mi
9:56 AM65 °FPassing clouds.10 mph63%30.00 "Hg10 mi
Weather by CustomWeather, © 2014

See weather overviewHow to use our weather pages